Home > Weather > Temple > Past weeks

Flag for U.S.A. Weather for the Past 2 Weeks in Temple, Texas, U.S.A.

Now
54 °F

Sunny.


Feels Like: 51 °F
Forecast: 35 / 67 °F
Wind: 10 mph from South

Location: Fort Hood AAF Airport

Current Time: Feb 7, 2016 at 11:38:05 AM

Latest Report: Feb 7, 2016 at 10:58 AM


Visibility: 10 mi

Pressure: 30.22 "Hg

Humidity: 47%

Dew point: 34 °F

Location of TempleLocation

Historic Weather in Temple — Graph

°F

Temple Temperature Yesterday

Maximum temperature yesterday: 56 °F (at 2:58 PM)
Minimum temperature yesterday: 40 °F (at 11:58 PM)
Average temperature yesterday: 47 °F

High & Low Weather Summary for the Past Weeks

 TemperatureHumidityPressure
High82 °F (Jan 31, 2:58 PM)100% (Feb 1, 8:58 AM)30.50 "Hg (Feb 1, 8:58 AM)
Low30 °F (Feb 4, 7:58 AM)16% (Feb 2, 1:58 PM)29.49 "Hg (Feb 1, 6:58 PM)
Average52 °F53%30.06 "Hg
* Reported Jan 23 9:58 AM — Feb 7 9:58 AM, Temple, Weather by CustomWeather, © 2016

Note: Actual official high and low records may vary slightly from our data, if they occured in-between our weather recording intervals... More about our weather records

Advertising

Temple Weather History for the Previous 24 Hours

 ConditionsComfort  
Time TempWeatherWind HumidityBarometerVisibility
9:58 AM
Sun, Feb 7
47 °FSunny.9 mph65%30.22 "Hg10 mi
8:58 AM39 °FSunny.10 mph86%30.23 "Hg10 mi
7:58 AM34 °FSunny.7 mph93%30.23 "Hg7 mi
6:58 AM33 °FClear.3 mph95%30.23 "Hg9 mi
5:58 AM32 °FClear.5 mph94%30.24 "Hg9 mi
4:58 AM34 °FClear.5 mph92%30.24 "Hg8 mi
3:58 AM33 °FClear.5 mph93%30.27 "Hg9 mi
2:58 AM35 °FClear.3 mphN/A30.28 "Hg9 mi
1:58 AM36 °FClear.3 mph88%30.31 "Hg10 mi
12:58 AM38 °FClear.No wind84%30.32 "Hg10 mi
11:58 PM
Sat, Feb 6
40 °FClear.No wind81%30.33 "Hg10 mi
10:58 PM40 °FClear.No wind81%30.36 "Hg10 mi
9:58 PM41 °FClear.No wind77%30.36 "Hg10 mi
8:58 PM43 °FClear.2 mph70%30.36 "Hg10 mi
7:58 PM45 °FClear.2 mph66%30.35 "Hg10 mi
6:58 PM48 °FClear.7 mph57%30.34 "Hg10 mi
5:58 PM52 °FSunny.8 mph47%30.33 "Hg10 mi
4:58 PM54 °FSunny.9 mphN/A30.32 "Hg10 mi
3:58 PM55 °FSunny.14 mph41%30.32 "Hg10 mi
2:58 PM56 °FPassing clouds.20 mph40%30.32 "Hg10 mi
1:58 PM56 °FSunny.22 mph38%30.32 "Hg10 mi
12:58 PM55 °FPassing clouds.21 mph38%30.35 "Hg10 mi
11:58 AM53 °FPassing clouds.22 mph39%30.36 "Hg10 mi
Weather by CustomWeather, © 2016

See weather overviewHow to use our weather pages